STARLINK-4360, 53482

Orbit data source: Space-Track

STARLINK-4360, 53482 is a payload satellite owned by SpaceX/Seattle (US) in SSO that was launched on Fri, 12 Aug 2022 UTC via an FALCON 9 launch vehicle from the Air Force Western Test Range (AFWTR). Payload-class satellites include a variety of spacecraft equipped with specific instruments for various scientific and technological missions. These include communications satellites like Starlink; space stations such as the ISS; scientific satellites like the Hubble; Earth observation satellites from companies like Planet Labs, Umbra, and HawkEye 360; GPS; miniature CubeSats for education and research; and military/defense satellites.

Loading next visibility...
Identifier
53482, 2022-099T
Orbit
SSO
Country
Flag of USUS
Related business
Manufacturer
SpaceX/Seattle
Mission
Operational Commercial Communications
Bus & Motor
STARLINK, Unknown motor
Mass
300 kg wet, ~275 kg dry
Launch date (UTC)
2022-08-12 (4 years ago)
Launch vehicle
FALCON 9
Launch site
Air Force Western Test Range (AFWTR)
Object type
Payload
Rocket body
Debris
Shape & HBR
Box + 1 Pan, 10.1 m
Radar Cross Section
13.562 m², Large (>1 m²)

Expand to show TLE details & history
Last TLE update: 14 hours ago

TLE from 14 hours ago
0 STARLINK-4360
1 53482U 22099T   26145.28904511 -.00001060  00000-0 -69372-4 0  9992
2 53482  97.4508 265.2783 0001576 179.1985 180.9245 15.05655929207509
Epoch: 2026-05-25T06:56Z
TLE epoch observation values (Epoch: 2026-05-25T06:56:13.497Z)
Latitude
-0.00002°
Longitude
-81.65691°
Altitude
553.654 km
Speed
7.584 km/s
True Right ascension
17h 41m 06s
True Declination
0° 00' 00"
Sunlit
Object was in full shadow at epoch
Visualization orbit readout
Latitude
Unknown
Longitude
Unknown
Altitude
Unknown
Speed
Unknown
Apparent Right ascension
Unknown
Apparent Declination
Unknown
Sunlit
N/A
Visualization observer readout
Local Sidereal Time
06:10:21
Azimuth
Unknown
Elevation
Unknown
Doppler factor
Unknown
Orbital elements
Apogee altitude
547.571 km
Perigee altitude
545.389 km
Semi-major axis
6,924.617 km
Eccentricity
0.00016
Inclination
97.4508°
RAAN
265.2783°
Arg. of periapsis
179.1985°
True anomaly
180.92421°
Mean anomaly
180.9245°
Eccentric anomaly
180.92435°
Mean motion
3.7666 °/min
Orbital period
95.58 mins
BSTAR
-0.000069372
Loading maneuver chart data...
Computing Atmospheric mass density...
Loading historical data...
Loading historical data...
Loading historical data...
Loading historical data...
Loading historical data...
Loading historical data...
Loading historical data...

Documentation

Showing up to 5 results
|